OPS 4682 DEB, 18271

Orbit data source: Space-Track

OPS 4682 DEB, 18271 is space debris in LEO originally from a launch on Sat, 03 Apr 1965 UTC launched from the Air Force Western Test Range (AFWTR). Debris objects in space refer to the collection of defunct objects orbiting the Earth. Examples of debris include non-operational satellites, rocket bodies, and fragments generated from explosions, collisions, or faulty payload assembly.

Loading next visibility...
Identifier
18271, 1965-027AA
Orbit
LEO
Country
Flag of USUS
Related business
Manufacturer
Unknown
Mission
Spacecraft
Bus & Motor
Unknown
Mass
Unknown
Launch date (UTC)
1965-04-03 (61 years ago)
Launch vehicle
Unknown
Launch site
Air Force Western Test Range (AFWTR)
Object type
Payload
Rocket body
Debris
Shape & HBR
Unknown shape, 0.1 m
Radar Cross Section
Small (<0.1 m²)

Expand to show TLE details & history
Last TLE update: 1 day ago

TLE from 1 day ago
0 OPS 4682 DEB
1 18271U 65027AA  26103.21452330  .00000756  00000-0  25679-2 0  9990
2 18271  90.2478   6.0576 0031511 293.6317 221.7428 12.97631086880967
Epoch: 2026-04-13T05:08Z
TLE epoch observation values (Epoch: 2026-04-13T05:08:54.813Z)
Latitude
24.88934°
Longitude
-92.46473°
Altitude
1,292.412 km
Speed
7.204 km/s
True Right ascension
12h 24m 41s
True Declination
24° 46' 03"
Sunlit
Object was in full shadow at epoch
Visualization orbit readout
Latitude
Unknown
Longitude
Unknown
Altitude
Unknown
Speed
Unknown
Apparent Right ascension
Unknown
Apparent Declination
Unknown
Sunlit
N/A
Visualization observer readout
Local Sidereal Time
22:57:57
Azimuth
Unknown
Elevation
Unknown
Doppler factor
Unknown
Orbital elements
Apogee altitude
1,292.608 km
Perigee altitude
1,244.417 km
Semi-major axis
7,646.65 km
Eccentricity
0.00315
Inclination
90.2478°
RAAN
6.0576°
Arg. of periapsis
293.6317°
True anomaly
221.5031°
Mean anomaly
221.7428°
Eccentric anomaly
221.62288°
Mean motion
3.24591 °/min
Orbital period
110.91 mins
BSTAR
0.0025679
Loading maneuver chart data...
Computing Atmospheric mass density...
Loading historical data...
Loading historical data...
Loading historical data...
Loading historical data...
Loading historical data...
Loading historical data...
Loading historical data...

Documentation

Showing up to 5 results
|